Location: Agadir Irigdalene
(31.2522°N, 8.7797°W)
Time: 06:18:28
(UTC+00:00)

Cosmos 1238 Rocket - Pass Details

Date: 01 December 2020
Orbit: 376 x 1024 km, 83.0° (Epoch: 16 January)

Event Time Altitude Azimuth Distance (km) Brightness Sun altitude
Rises 19:02:20 0° 359° (N) 2,800 6.3 -18.9°
Reaches altitude 10° 19:04:22 10° 3° (N) 1,990 5.5 -19.4°
Maximum altitude 19:08:47 63° 84° (E) 791 3.2 -20.3°
Drops below altitude 10° 19:14:07 10° 166° (SSE) 2,400 6.0 -21.4°
Sets 19:16:45 0° 169° (S) 3,431 6.9 -21.9°
